This is the latest recevied weather packets stored in our database for station/object VA3XLC. If no packets are shown the sender has not sent any weather packets the latest 10 day(s).
| Time | Temp. | Humidity | Pressure | Rain* | Wind** | Luminosity | Snow |
|---|---|---|---|---|---|---|---|
| 1777892790 | 7.78° C | 75% | 973.2 hPa | - | - | 74 W/m² | - |
| 1777890283 | 7.78° C | 74% | 973.2 hPa | - | - | 8 W/m² | - |
| 1777887580 | 8.33° C | 71% | 973.3 hPa | - | - | 0 W/m² | - |
| 1777886959 | 8.89° C | 71% | 973.3 hPa | - | - | 0 W/m² | - |
| 1777886359 | 8.89° C | 70% | 973.3 hPa | - | - | 0 W/m² | - |
| 1777885437 | 8.89° C | 70% | 973.3 hPa | - | - | 0 W/m² | - |
| 1777880892 | 10° C | 65% | 973.4 hPa | - | - | 0 W/m² | - |
| 1777879670 | 10.56° C | 63% | 973.7 hPa | - | - | 0 W/m² | - |
| 1777879369 | 10.56° C | 63% | 973.8 hPa | - | - | 0 W/m² | - |
| 1777879069 | 10.56° C | 62% | 973.9 hPa | - | - | 0 W/m² | - |
| 1777877847 | 10.56° C | 61% | 974.1 hPa | - | - | 0 W/m² | - |
| 1777876946 | 10.56° C | 60% | 974.2 hPa | - | - | 0 W/m² | - |
| 1777875124 | 11.11° C | 58% | 974.6 hPa | - | - | 0 W/m² | - |
| 1777874823 | 11.11° C | 58% | 974.7 hPa | - | - | 0 W/m² | - |
| 1777872058 | 11.11° C | 56% | 975.1 hPa | - | - | 0 W/m² | - |
| 1777871136 | 11.11° C | 56% | 975.3 hPa | - | - | 0 W/m² | - |
| 1777870836 | 11.11° C | 57% | 975.3 hPa | - | - | 0 W/m² | - |
| 1777868433 | 11.67° C | 57% | 975.4 hPa | - | - | 0 W/m² | - |
| 1777867833 | 11.67° C | 56% | 975.4 hPa | - | - | 0 W/m² | - |
| 1777863608 | 12.78° C | 54% | 975.8 hPa | - | - | 0 W/m² | - |
| 1777863008 | 12.78° C | 53% | 975.8 hPa | - | - | 0 W/m² | - |
| 1777861765 | 12.78° C | 50% | 975.7 hPa | - | - | 0 W/m² | - |
| 1777860564 | 12.78° C | 48% | 975.6 hPa | - | - | 0 W/m² | - |
| 1777859963 | 13.33° C | 48% | 975.6 hPa | - | - | 0 W/m² | - |
| 1777859041 | 13.33° C | 47% | 975.5 hPa | - | - | 0 W/m² | - |
* Rain since midnight (hover to see other rain measurements)
** Current wind speed in m/s (hover to see current wind gust speed)